SCP
0 0 0 0 0 0 0 0 0 0 0 0 0 0 0 0 0 -0 -0 0 0 0 0 0 0 0 0 0 0 0 0 0 0 0 0 0 0 0 0 0 0 0 0 0
0 0 0 0 0 0 0 0 0 0 0 0 0 0 0 0 -0 -0 -0 0 0 0 0 0 0 0 0 0 0 0 0 0 0 0 0 0 0 0 0 0 0 0 0 0
0 0 0 0 0 0 0 0 0 0 0 0 0 0 0 0 -0 0 0 0 0 0 0 0 0 0 0 0 0 0 0 0 0 0 0 0 0 0 0 0 0 0 0 0
0 0 0 0 0 0 0 0 0 0 0 0 0 0 0 -0 0 0 0 0 0 0 0 0 0 0 0 0 0 0 0 0 0 0 0 0 0 0 0 0 0 0 0 0
0 0 0 0 0 0 0 0 0 0 0 0 -0 0 0 0 0 0 0 0 0 0 0 0 0 0 0 0 0 0 0 0 0 0 0 0 0 0 0 0 0 0 0 0
0 0 0 0 0 0 0 0 0 -0 0 0 -0 0 0 0 0 0 0 0 0 0 0 0 0 0 0 0 0 0 0 0 0 0 0 0 0 0 0 0 0 0 0 0
0 0 0 0 0 0 0 0 0 0 0 0 0 0 0 0 0 0 0 0 0 0 -0 -0 0 0 0 0 0 0 0 0 0 0 0 0 0 0 0 0 0 0 0 0
0 0 0 0 0 0 0 0 0 0 0 0 0 0 0 0 0 0 0 0 0 0 0 0 0 0 0 0 0 0 0 0 0 0 0 0 0 0 0 0 0 0 0 0
0 0 0 0 0 0 0 0 0 0 0 0 0 0 0 0 0 0 0 0 0 0 0 0 0 0 0 0 0 0 0 0 0 0 0 0 0 0 0 0 0 0 0 0
0 0 0 0 0 0 0 0 0 0 0 0 0 0 0 0 0 -0 0 -0 0 0 0 0 0 -0 0 0 0 0 0 0 0 0 0 0 0 0 0 0 0 0 0 0
0 0 0 0 0 0 0 0 0 0 0 0 0 0 0 0 -0 0 -0 0 0 0 0 0 -0 -0 0 0 0 0 0 0 0 0 0 0 0 0 0 0 0 0 0 0
0 0 0 0 0 0 0 0 0 0 0 0 0 0 0 0 0 -0 0 0 0 0 0 0 -0 0 0 0 0 0 0 0 0 0 0 0 0 0 0 0 0 0 0 0
0 0 0 0 0 0 0 0 0 0 0 0 0 0 0 0 0 0 0 0 0 0 0 0 0 -0 0 0 0 0 -0 0 0 0 0 0 0 0 0 0 0 0 0 0
0 0 0 0 0 0 0 0 0 0 0 0 0 -0 -0 0 0 0 0 0 0 0 0 0 -0 -0 0 0 0 -0 0 0 0 0 0 0 0 0 0 0 0 0 0 0
0 0 0 0 0 0 0 0 0 0 0 0 0 0 -0 0 0 0 0 0 0 0 0 0 -0 -0 0 0 0 0 -0 0 0 0 0 0 0 0 0 0 0 0 0 0
0 0 0 0 0 0 0 0 0 0 0 0 0 -0 0 0 0 0 0 0 0 0 0 0 -0 0 0 0 0 0 0 0 0 0 0 0 0 0 0 0 0 0 0 0
0 0 0 0 0 0 0 0 0 0 0 0 0 0 -0 0 0 0 0 0 0 0 0 0 0 0 -0 -0 -0 0 0 0 0 0 0 0 0 0 0 0 0 0 0 0
0 0 0 0 0 0 0 0 0 0 0 0 0 0 0 0 0 0 0 0 0 0 0 0 -0 -0 -0 -0 0 0 0 0 0 0 0 0 0 0 0 0 0 0 0 0
0 0 0 0 0 0 0 0 0 0 0 0 0 0 0 0 0 0 0 0 0 0 0 0 -0 -0 -0 0 0 0 0 0 0 0 0 0 0 0 0 0 0 0 0 0
0 0 0 0 0 0 0 0 0 0 0 0 0 -0 -0 -0 0 0 0 0 0 0 0 0 0 0 0 0 0 0 0 0 0 0 0 0 0 0 0 0 0 0 0 0
0 0 0 0 0 0 0 0 0 0 0 0 -0 -0 -0 0 0 0 0 0 0 0 0 0 0 0 0 0 0 0 0 0 0 0 0 0 0 0 0 0 0 0 0 0
0 0 0 0 0 0 0 0 0 0 0 -0 -0 -0 -0 0 0 0 0 0 0 0 0 0 0 0 0 0 0 0 0 0 0 0 0 0 0 0 0 0 0 0 0 0
0 0 0 0 0 0 0 0 0 0 -0 -0 -0 -0 -0 0 0 0 0 0 0 0 0 0 0 0 0 0 0 0 0 0 0 0 0 0 0 0 0 0 0 0 0 0
0 0 0 0 0 0 0 0 0 0 0 0 -0 -0 -0 0 0 0 0 0 0 0 0 0 0 0 0 0 0 0 0 0 0 0 0 0 0 -0 0 0 0 0 0 0
0 0 0 0 0 0 0 0 -0 0 0 -0 -0 -0 -0 0 0 0 0 0 0 0 0 0 0 0 0 0 0 0 0 0 0 0 0 0 0 0 0 0 0 0 0 0
0 0 0 0 0 0 0 -0 -0 -0 -0 -0 -0 -0 -0 -0 0 0 0 0 0 0 0 0 0 0 0 0 0 0 0 0 0 0 0 0 0 -0 -0 -0 0 -0 -0 0
Wind_Speed_500mb
6 4 11 15 12 11 14 18 21 26 27 28 22 46 43 45 61 61 61 50 52 51 50 46 46 44 47 56 72 72 60 64 70 90 90 96 99 87 88 94 88 87 81 91
3 4 13 5 3 9 18 20 19 20 11 27 29 52 50 37 38 40 55 52 52 51 40 39 34 33 35 43 51 59 66 63 65 84 101 100 109 100 92 95 92 96 91 97
3 8 7 6 12 16 18 16 13 19 24 21 21 25 6 24 44 45 53 66 47 18 27 32 32 32 36 36 37 45 57 74 65 69 85 108 105 99 98 96 91 92 100 97
7 9 4 11 16 12 13 11 19 27 19 4 14 16 8 20 18 23 50 33 34 27 27 35 38 46 46 45 46 51 54 59 67 71 78 82 101 105 95 103 100 104 105 98
5 2 6 8 6 4 14 20 29 32 24 12 11 7 14 39 29 20 25 38 40 38 36 37 45 50 64 67 69 66 68 69 59 75 80 96 108 99 113 105 108 114 107 96
11 2 3 8 11 13 19 19 37 27 4 1 16 11 28 25 20 25 21 49 33 44 46 50 62 86 83 87 88 76 75 79 91 79 87 100 99 111 104 120 118 116 109 97
4 15 10 6 11 8 1 13 9 10 5 11 17 18 21 29 28 41 29 33 53 57 69 82 83 81 87 91 96 95 97 109 105 100 91 102 114 109 132 133 131 120 112 105
4 9 14 16 8 5 6 2 4 9 7 30 27 12 11 22 42 23 40 54 57 65 66 73 95 106 107 103 97 92 84 95 99 97 92 95 109 102 124 145 135 124 118 117
5 6 7 11 7 4 6 6 3 6 14 12 10 18 33 30 12 18 38 42 58 61 71 104 100 93 93 90 96 96 98 97 94 98 102 92 110 97 106 141 128 120 125 122
7 9 2 6 2 18 11 9 7 2 9 12 13 31 23 16 13 29 22 55 68 57 79 113 102 100 97 96 92 90 92 102 101 104 101 95 106 98 101 131 132 123 125 122
7 3 5 3 13 11 5 5 8 9 6 7 10 29 8 10 31 18 42 62 73 63 98 97 104 100 94 90 87 87 84 89 100 96 94 90 97 107 98 119 117 119 120 128
4 1 9 17 11 9 6 9 8 7 15 11 12 35 34 35 14 49 47 76 60 68 92 101 103 95 86 82 81 75 68 66 74 83 85 91 99 105 101 114 123 113 118 121
9 5 7 16 5 3 6 9 13 11 11 36 11 25 12 26 53 64 69 59 60 96 92 99 86 79 76 79 73 72 57 34 49 66 74 95 100 108 106 116 114 107 114 124
9 5 13 12 8 6 15 20 19 15 12 33 39 71 73 55 48 51 58 63 77 69 94 89 81 72 74 71 62 56 10 30 47 73 83 94 100 98 89 76 92 105 117 123
6 11 11 29 30 30 38 45 41 38 49 27 62 49 62 56 57 51 65 66 68 78 95 82 77 69 67 61 52 38 9 47 61 72 76 84 94 94 84 72 94 97 108 114
10 8 4 10 14 12 28 43 46 48 45 41 55 62 53 52 64 57 69 68 54 95 84 76 72 67 59 51 41 25 8 41 66 79 81 84 88 85 81 74 89 96 101 103
14 5 2 11 5 15 18 22 14 10 9 20 31 42 32 39 35 53 66 46 75 83 77 71 67 59 50 38 26 15 11 33 54 77 85 82 76 87 82 90 97 101 106 103
9 9 2 8 10 5 14 29 22 26 30 25 28 27 22 39 62 73 24 60 68 76 72 68 57 50 40 23 10 5 20 30 48 65 76 79 81 84 84 86 89 99 99 84
10 8 4 3 4 23 20 4 4 6 12 15 10 17 36 54 48 3 53 59 76 73 63 55 46 37 28 18 4 11 25 35 39 52 66 74 77 79 76 72 79 88 91 86
8 7 8 5 3 12 11 10 8 5 11 5 9 15 27 44 25 19 78 73 81 66 55 45 37 26 18 13 13 27 31 37 42 50 57 58 60 70 76 82 91 89 79 76
8 2 27 16 9 18 24 24 10 7 9 4 15 30 35 15 16 61 62 65 67 58 55 39 33 27 20 16 19 34 39 42 47 55 63 66 64 70 77 85 82 78 75 70
17 17 10 11 8 21 28 9 10 7 5 18 43 45 43 49 53 55 58 61 59 56 51 51 45 35 28 25 27 40 48 47 49 55 60 65 70 74 77 75 72 69 65 63
5 15 13 24 18 16 27 24 26 22 34 41 51 55 42 47 45 50 57 55 48 48 40 43 53 48 46 43 47 52 51 50 57 64 67 68 69 69 65 65 67 66 59 52
8 27 7 5 19 46 68 66 60 66 67 55 43 41 38 35 36 42 46 48 43 40 37 35 47 50 51 51 53 54 54 58 64 66 65 66 71 71 66 61 54 49 45 39
12 22 13 15 33 53 72 57 56 44 37 43 36 22 23 26 30 34 38 38 37 34 30 28 37 44 56 60 62 61 60 59 64 64 62 58 55 50 46 38 33 29 26 23
21 16 13 16 29 27 20 21 25 11 6 7 6 9 17 21 26 28 30 32 30 29 27 23 26 32 41 40 42 42 40 34 36 38 37 34 33 33 31 31 32 29 24 20
Wind_Direction_500mb
45 319 54 50 24 339 305 288 287 288 297 299 285 291 291 291 287 283 280 289 299 295 295 291 285 277 273 267 263 263 261 259 249 235 228 226 216 209 206 213 216 209 203 201
146 46 78 28 271 273 275 276 276 272 294 315 295 293 285 276 270 288 289 287 283 277 287 296 287 282 275 274 270 267 267 259 255 245 234 232 222 217 206 209 211 207 208 205
287 49 90 309 310 298 281 274 297 291 318 277 342 286 277 321 288 276 290 290 289 303 288 299 296 291 291 290 290 286 275 261 255 258 238 215 224 221 206 203 200 202 207 209
279 92 14 304 288 276 292 357 322 305 327 275 60 292 266 259 272 289 300 335 330 314 293 289 281 285 285 290 286 277 276 276 267 254 253 224 210 204 203 201 201 205 209 210
80 33 357 289 264 45 250 341 301 283 278 305 255 246 271 301 302 307 326 320 322 320 311 291 294 288 289 283 283 286 277 270 261 259 253 248 216 208 207 201 202 205 210 209
236 250 167 286 319 255 286 293 287 277 196 270 239 167 295 304 307 310 303 314 338 334 329 320 310 304 295 288 285 283 273 268 270 264 255 248 236 207 199 198 203 207 208 207
304 199 148 251 286 173 145 332 322 348 341 232 324 330 254 282 298 313 301 1 340 327 319 314 309 303 293 287 281 275 267 271 266 265 250 245 244 212 207 205 208 214 207 203
357 303 166 162 255 342 319 312 183 276 300 297 296 239 256 307 301 321 355 337 332 318 316 308 307 300 297 292 285 281 270 263 257 255 248 241 237 231 206 212 218 218 210 204
330 260 96 185 261 166 99 202 353 305 249 270 242 266 308 280 296 345 332 327 313 318 312 319 312 303 300 292 286 278 271 262 254 246 242 235 237 226 209 207 216 214 208 205
75 296 217 112 232 238 223 14 36 292 302 300 284 295 251 302 316 317 316 320 322 314 319 321 312 307 303 297 291 283 270 263 256 248 241 228 229 219 211 204 205 212 209 204
67 148 276 227 197 187 161 235 200 217 210 250 297 289 208 285 302 308 323 320 320 323 324 314 313 310 307 302 298 295 287 271 254 239 233 220 215 210 204 206 211 206 205 201
98 260 267 240 281 343 268 232 253 152 264 240 297 271 288 268 283 334 313 315 323 324 321 318 314 313 311 309 314 307 290 279 240 227 210 211 202 200 201 204 212 204 203 195
158 234 319 328 33 333 208 199 226 253 285 254 260 271 263 305 314 309 312 320 321 330 322 318 315 315 316 322 320 322 301 245 210 199 202 193 195 197 194 205 203 202 200 191
155 234 206 226 224 19 281 269 264 276 269 271 245 275 284 297 301 307 310 328 328 323 321 319 318 320 327 327 326 327 297 183 179 185 185 189 191 188 189 204 207 200 194 188
173 239 224 261 276 282 272 272 273 254 251 247 272 275 284 293 300 302 318 318 322 324 323 319 320 325 330 329 328 328 166 176 179 183 188 187 186 193 191 205 202 193 186 185
170 272 44 278 269 276 279 273 261 259 265 259 265 272 278 291 313 311 314 327 328 321 318 321 324 331 332 330 329 326 229 157 178 178 181 186 189 186 188 206 198 190 187 180
168 216 8 265 337 325 293 254 240 245 212 254 271 286 317 309 316 316 323 337 323 318 323 327 331 333 333 331 331 313 214 179 159 171 175 179 183 182 187 187 185 185 180 177
155 130 225 276 352 317 242 308 246 253 270 265 275 291 304 311 312 310 354 336 327 330 332 338 337 336 336 341 337 180 179 185 171 166 169 174 177 177 178 178 179 178 174 171
155 152 276 223 259 292 292 98 92 43 282 272 287 305 310 326 319 19 347 345 339 346 348 346 342 341 343 352 48 132 144 156 166 161 160 165 171 168 169 172 169 167 167 166
277 173 184 68 181 249 245 147 97 300 291 111 349 302 331 343 350 326 337 344 351 1 1 356 358 4 21 58 106 123 140 139 145 151 157 160 162 162 163 166 166 161 160 159
144 181 224 222 250 275 255 260 235 93 246 283 338 335 336 336 296 308 332 354 357 10 14 16 24 32 53 82 106 116 129 135 138 142 146 152 158 159 157 157 156 153 156 156
164 162 190 190 210 264 194 110 183 215 266 331 332 331 330 326 334 339 350 2 3 13 27 37 47 52 59 75 93 108 114 129 138 142 144 144 145 146 148 148 149 150 150 150
226 191 180 190 212 240 192 223 223 283 298 306 311 316 325 325 339 344 353 4 14 14 29 35 40 55 68 83 96 104 115 124 128 129 132 135 136 137 139 140 137 138 147 157
240 237 227 127 244 247 261 262 266 276 282 288 296 309 319 320 342 347 359 5 16 21 29 40 50 60 71 79 86 95 106 112 116 117 120 121 122 124 129 139 145 151 161 164
187 145 196 260 277 284 277 277 277 280 277 271 282 302 321 332 347 350 1 10 16 25 38 55 68 75 86 89 86 88 96 105 110 114 118 123 128 134 142 150 152 156 155 162
182 182 184 238 216 228 257 279 279 286 311 309 286 328 350 345 345 354 6 11 20 31 42 65 93 99 107 107 103 105 108 108 111 119 127 135 144 148 152 154 158 165 170 173
Wind_Speed_850mb
6 4 11 15 12 11 14 18 21 26 27 28 22 46 43 45 61 61 61 50 52 51 50 46 46 44 47 56 72 72 60 64 70 90 90 96 99 87 88 94 88 87 81 91
3 4 13 5 3 9 18 20 19 20 11 27 29 52 50 37 38 40 55 52 52 51 40 39 34 33 35 43 51 59 66 63 65 84 101 100 109 100 92 95 92 96 91 97
3 8 7 6 12 16 18 16 13 19 24 21 21 25 6 24 44 45 53 66 47 18 27 32 32 32 36 36 37 45 57 74 65 69 85 108 105 99 98 96 91 92 100 97
7 9 4 11 16 12 13 11 19 27 19 4 14 16 8 20 18 23 50 33 34 27 27 35 38 46 46 45 46 51 54 59 67 71 78 82 101 105 95 103 100 104 105 98
5 2 6 8 6 4 14 20 29 32 24 12 11 7 14 39 29 20 25 38 40 38 36 37 45 50 64 67 69 66 68 69 59 75 80 96 108 99 113 105 108 114 107 96
11 2 3 8 11 13 19 19 37 27 4 1 16 11 28 25 20 25 21 49 33 44 46 50 62 86 83 87 88 76 75 79 91 79 87 100 99 111 104 120 118 116 109 97
4 15 10 6 11 8 1 13 9 10 5 11 17 18 21 29 28 41 29 33 53 57 69 82 83 81 87 91 96 95 97 109 105 100 91 102 114 109 132 133 131 120 112 105
4 9 14 16 8 5 6 2 4 9 7 30 27 12 11 22 42 23 40 54 57 65 66 73 95 106 107 103 97 92 84 95 99 97 92 95 109 102 124 145 135 124 118 117
5 6 7 11 7 4 6 6 3 6 14 12 10 18 33 30 12 18 38 42 58 61 71 104 100 93 93 90 96 96 98 97 94 98 102 92 110 97 106 141 128 120 125 122
7 9 2 6 2 18 11 9 7 2 9 12 13 31 23 16 13 29 22 55 68 57 79 113 102 100 97 96 92 90 92 102 101 104 101 95 106 98 101 131 132 123 125 122
7 3 5 3 13 11 5 5 8 9 6 7 10 29 8 10 31 18 42 62 73 63 98 97 104 100 94 90 87 87 84 89 100 96 94 90 97 107 98 119 117 119 120 128
4 1 9 17 11 9 6 9 8 7 15 11 12 35 34 35 14 49 47 76 60 68 92 101 103 95 86 82 81 75 68 66 74 83 85 91 99 105 101 114 123 113 118 121
9 5 7 16 5 3 6 9 13 11 11 36 11 25 12 26 53 64 69 59 60 96 92 99 86 79 76 79 73 72 57 34 49 66 74 95 100 108 106 116 114 107 114 124
9 5 13 12 8 6 15 20 19 15 12 33 39 71 73 55 48 51 58 63 77 69 94 89 81 72 74 71 62 56 10 30 47 73 83 94 100 98 89 76 92 105 117 123
6 11 11 29 30 30 38 45 41 38 49 27 62 49 62 56 57 51 65 66 68 78 95 82 77 69 67 61 52 38 9 47 61 72 76 84 94 94 84 72 94 97 108 114
10 8 4 10 14 12 28 43 46 48 45 41 55 62 53 52 64 57 69 68 54 95 84 76 72 67 59 51 41 25 8 41 66 79 81 84 88 85 81 74 89 96 101 103
14 5 2 11 5 15 18 22 14 10 9 20 31 42 32 39 35 53 66 46 75 83 77 71 67 59 50 38 26 15 11 33 54 77 85 82 76 87 82 90 97 101 106 103
9 9 2 8 10 5 14 29 22 26 30 25 28 27 22 39 62 73 24 60 68 76 72 68 57 50 40 23 10 5 20 30 48 65 76 79 81 84 84 86 89 99 99 84
10 8 4 3 4 23 20 4 4 6 12 15 10 17 36 54 48 3 53 59 76 73 63 55 46 37 28 18 4 11 25 35 39 52 66 74 77 79 76 72 79 88 91 86
8 7 8 5 3 12 11 10 8 5 11 5 9 15 27 44 25 19 78 73 81 66 55 45 37 26 18 13 13 27 31 37 42 50 57 58 60 70 76 82 91 89 79 76
8 2 27 16 9 18 24 24 10 7 9 4 15 30 35 15 16 61 62 65 67 58 55 39 33 27 20 16 19 34 39 42 47 55 63 66 64 70 77 85 82 78 75 70
17 17 10 11 8 21 28 9 10 7 5 18 43 45 43 49 53 55 58 61 59 56 51 51 45 35 28 25 27 40 48 47 49 55 60 65 70 74 77 75 72 69 65 63
5 15 13 24 18 16 27 24 26 22 34 41 51 55 42 47 45 50 57 55 48 48 40 43 53 48 46 43 47 52 51 50 57 64 67 68 69 69 65 65 67 66 59 52
8 27 7 5 19 46 68 66 60 66 67 55 43 41 38 35 36 42 46 48 43 40 37 35 47 50 51 51 53 54 54 58 64 66 65 66 71 71 66 61 54 49 45 39
12 22 13 15 33 53 72 57 56 44 37 43 36 22 23 26 30 34 38 38 37 34 30 28 37 44 56 60 62 61 60 59 64 64 62 58 55 50 46 38 33 29 26 23
21 16 13 16 29 27 20 21 25 11 6 7 6 9 17 21 26 28 30 32 30 29 27 23 26 32 41 40 42 42 40 34 36 38 37 34 33 33 31 31 32 29 24 20
Wind_Direction_850mb
45 319 54 50 24 339 305 288 287 288 297 299 285 291 291 291 287 283 280 289 299 295 295 291 285 277 273 267 263 263 261 259 249 235 228 226 216 209 206 213 216 209 203 201
146 46 78 28 271 273 275 276 276 272 294 315 295 293 285 276 270 288 289 287 283 277 287 296 287 282 275 274 270 267 267 259 255 245 234 232 222 217 206 209 211 207 208 205
287 49 90 309 310 298 281 274 297 291 318 277 342 286 277 321 288 276 290 290 289 303 288 299 296 291 291 290 290 286 275 261 255 258 238 215 224 221 206 203 200 202 207 209
279 92 14 304 288 276 292 357 322 305 327 275 60 292 266 259 272 289 300 335 330 314 293 289 281 285 285 290 286 277 276 276 267 254 253 224 210 204 203 201 201 205 209 210
80 33 357 289 264 45 250 341 301 283 278 305 255 246 271 301 302 307 326 320 322 320 311 291 294 288 289 283 283 286 277 270 261 259 253 248 216 208 207 201 202 205 210 209
236 250 167 286 319 255 286 293 287 277 196 270 239 167 295 304 307 310 303 314 338 334 329 320 310 304 295 288 285 283 273 268 270 264 255 248 236 207 199 198 203 207 208 207
304 199 148 251 286 173 145 332 322 348 341 232 324 330 254 282 298 313 301 1 340 327 319 314 309 303 293 287 281 275 267 271 266 265 250 245 244 212 207 205 208 214 207 203
357 303 166 162 255 342 319 312 183 276 300 297 296 239 256 307 301 321 355 337 332 318 316 308 307 300 297 292 285 281 270 263 257 255 248 241 237 231 206 212 218 218 210 204
330 260 96 185 261 166 99 202 353 305 249 270 242 266 308 280 296 345 332 327 313 318 312 319 312 303 300 292 286 278 271 262 254 246 242 235 237 226 209 207 216 214 208 205
75 296 217 112 232 238 223 14 36 292 302 300 284 295 251 302 316 317 316 320 322 314 319 321 312 307 303 297 291 283 270 263 256 248 241 228 229 219 211 204 205 212 209 204
67 148 276 227 197 187 161 235 200 217 210 250 297 289 208 285 302 308 323 320 320 323 324 314 313 310 307 302 298 295 287 271 254 239 233 220 215 210 204 206 211 206 205 201
98 260 267 240 281 343 268 232 253 152 264 240 297 271 288 268 283 334 313 315 323 324 321 318 314 313 311 309 314 307 290 279 240 227 210 211 202 200 201 204 212 204 203 195
158 234 319 328 33 333 208 199 226 253 285 254 260 271 263 305 314 309 312 320 321 330 322 318 315 315 316 322 320 322 301 245 210 199 202 193 195 197 194 205 203 202 200 191
155 234 206 226 224 19 281 269 264 276 269 271 245 275 284 297 301 307 310 328 328 323 321 319 318 320 327 327 326 327 297 183 179 185 185 189 191 188 189 204 207 200 194 188
173 239 224 261 276 282 272 272 273 254 251 247 272 275 284 293 300 302 318 318 322 324 323 319 320 325 330 329 328 328 166 176 179 183 188 187 186 193 191 205 202 193 186 185
170 272 44 278 269 276 279 273 261 259 265 259 265 272 278 291 313 311 314 327 328 321 318 321 324 331 332 330 329 326 229 157 178 178 181 186 189 186 188 206 198 190 187 180
168 216 8 265 337 325 293 254 240 245 212 254 271 286 317 309 316 316 323 337 323 318 323 327 331 333 333 331 331 313 214 179 159 171 175 179 183 182 187 187 185 185 180 177
155 130 225 276 352 317 242 308 246 253 270 265 275 291 304 311 312 310 354 336 327 330 332 338 337 336 336 341 337 180 179 185 171 166 169 174 177 177 178 178 179 178 174 171
155 152 276 223 259 292 292 98 92 43 282 272 287 305 310 326 319 19 347 345 339 346 348 346 342 341 343 352 48 132 144 156 166 161 160 165 171 168 169 172 169 167 167 166
277 173 184 68 181 249 245 147 97 300 291 111 349 302 331 343 350 326 337 344 351 1 1 356 358 4 21 58 106 123 140 139 145 151 157 160 162 162 163 166 166 161 160 159
144 181 224 222 250 275 255 260 235 93 246 283 338 335 336 336 296 308 332 354 357 10 14 16 24 32 53 82 106 116 129 135 138 142 146 152 158 159 157 157 156 153 156 156
164 162 190 190 210 264 194 110 183 215 266 331 332 331 330 326 334 339 350 2 3 13 27 37 47 52 59 75 93 108 114 129 138 142 144 144 145 146 148 148 149 150 150 150
226 191 180 190 212 240 192 223 223 283 298 306 311 316 325 325 339 344 353 4 14 14 29 35 40 55 68 83 96 104 115 124 128 129 132 135 136 137 139 140 137 138 147 157
240 237 227 127 244 247 261 262 266 276 282 288 296 309 319 320 342 347 359 5 16 21 29 40 50 60 71 79 86 95 106 112 116 117 120 121 122 124 129 139 145 151 161 164
187 145 196 260 277 284 277 277 277 280 277 271 282 302 321 332 347 350 1 10 16 25 38 55 68 75 86 89 86 88 96 105 110 114 118 123 128 134 142 150 152 156 155 162
182 182 184 238 216 228 257 279 279 286 311 309 286 328 350 345 345 354 6 11 20 31 42 65 93 99 107 107 103 105 108 108 111 119 127 135 144 148 152 154 158 165 170 173